Tucson, AZ (85707)

11:06 PM MST on July 27, 2017 (GMT -0700)
Koba Weather Watch | | Change Station

Elev 2654 ft 32.19 °N, 110.86 °W | Updated 9 minutes ago

Mostly Cloudy
Mostly Cloudy
76.7 °F
Feels Like 78 °F
N
7.0
Wind Variable Wind from SE
Gusts 10.0 mph

Today
High -- | Low -- °F
--% Chance of Precip.
Yesterday
High -- | Low -- °F
Precip. -- in
Pressure 29.90 in
Visibility 10.0 miles
Clouds Mostly Cloudy 13000 ft
Mostly Cloudy 15000 ft
Heat Index 78 °F
Dew Point 67 °F
Humidity 73%
Rainfall 0.00 in
Snow Depth Not available.
5:35 AM 7:24 PM
Waxing Crescent, 27% visible
METAR KDMA 280558Z AUTO 17009KT 10SM BKN130 BKN150 24/19 A3003 RMK AO2 DZB0458E09 SLP123 P0000 60000 T02440192 10382 20239 52027 $
Pressure 29.90 in
Visibility 10.0 miles
Clouds Mostly Cloudy 13000 ft
Mostly Cloudy 15000 ft
Heat Index 78 °F
Dew Point 67 °F
Humidity 73%
Rainfall 0.00 in
Snow Depth Not available.
5:35 AM 7:24 PM
Waxing Crescent, 27% visible
METAR KDMA 280558Z AUTO 17009KT 10SM BKN130 BKN150 24/19 A3003 RMK AO2 DZB0458E09 SLP123 P0000 60000 T02440192 10382 20239 52027 $

Get Severe Weather Alerts

Thanks for signing up!

Be on the lookout for a verification email in your inbox.

You'll start receiving the daily forecast at 6 AM.

×

10-Day Weather Forecast

Almanac

Astronomy

Jul. 27, 2017 Rise Set
Actual Time
Civil Twilight
Nautical Twilight
Astronomical Twilight
Moon
Length of Visible Light
Length of Day
Tomorrow will be .
, % of the Moon is Illuminated

Today's Extremes

State Highs State Lows

Community

WunderPhotos

Category 6

Welcome to Category 6. This is the collective home for Weather Underground's featured writeups by Dr. Jeff Masters (right), Bob Henson (left), Chris Burt, and other regular contributors.

Nearby

Air Quality

  Air Quality AQ Index Pollutant
Not available.

Snow Depth

Station Depth Elevation

Earthquake Activity

City Distance Mag. Time & Date
Minimum magnitude displayed is 2.5.

Coastal Water Temperatures

Place Temperature

Stations

Nearby Weather Stations

Station Location Temp. Windchill Dew Point Humidity Wind Precip. Elev Updated Type
                   

Watches & Warnings

There are currently no watches in effect.